DW5686 Weather Reports


time (UTC)temp
C
wind
direction
speed
KPH
gust
KPH
rain 1hr
cm
rain 24hr
cm
rain mn
cm
humidity
%
barometer
mb
20260505032503 17 212 4.8 11.3 0.00 0.00 0.00 46 1015.1
20260505032003 17 136 3.2 11.3 0.00 0.00 0.00 46 1015.1
20260505031502 17 224 3.2 11.3 0.00 0.00 0.00 45 1015.1
20260505031002 17 176 6.4 11.3 0.00 0.00 0.00 45 1015.0
20260505030502 16 162 4.8 11.3 0.00 0.00 0.00 46 1015.0
20260505030002 16 151 3.2 9.7 0.00 0.00 0.00 47 1015.0
20260505025524 16 158 3.2 9.7 0.00 0.00 0.00 47 1015.0
20260505025023 16 160 0.0 14.5 0.00 0.00 0.00 48 1015.0
20260505024524 16 140 3.2 14.5 0.00 0.00 0.00 47 1015.0
20260505024024 16 117 3.2 9.7 0.00 0.00 0.00 49 1015.0
20260505023502 16 157 3.2 9.7 0.00 0.00 0.00 48 1015.0
20260505023003 16 149 3.2 9.7 0.00 0.00 0.00 48 1014.8
20260505022502 16 153 1.6 6.4 0.00 0.00 0.00 48 1014.9
20260505022002 16 153 1.6 6.4 0.00 0.00 0.00 48 1014.8
20260505021503 16 154 0.0 4.8 0.00 0.00 0.00 47 1014.8
20260505021024 17 154 1.6 8.0 0.00 0.00 0.00 47 1014.8
20260505020503 17 154 3.2 8.0 0.00 0.00 0.00 46 1014.8
20260505020023 17 154 3.2 4.8 0.00 0.00 0.00 45 1014.7
20260505015502 17 0 0.0 3.2 0.00 0.00 0.00 44 1014.6
20260505015003 17 154 0.0 3.2 0.00 0.00 0.00 44 1014.7
20260505014503 18 154 1.6 3.2 0.00 0.00 0.00 43 1014.6
20260505014002 18 154 1.6 4.8 0.00 0.00 0.00 43 1014.6
20260505013503 18 154 1.6 4.8 0.00 0.00 0.00 41 1014.5
20260505013002 18 154 1.6 8.0 0.00 0.00 0.00 41 1014.5
20260505012503 18 161 3.2 9.7 0.00 0.00 0.00 39 1014.4
20260505012003 19 141 4.8 9.7 0.00 0.00 0.00 38 1014.4
20260505011503 19 162 1.6 11.3 0.00 0.00 0.00 38 1014.3
20260505011023 20 149 3.2 11.3 0.00 0.00 0.00 37 1014.3
20260505010503 20 147 6.4 11.3 0.00 0.00 0.00 37 1014.2
20260505010023 20 159 4.8 8.0 0.00 0.00 0.00 37 1014.2
20260505005525 20 154 4.8 11.3 0.00 0.00 0.00 36 1014.2
20260505005002 20 157 4.8 11.3 0.00 0.00 0.00 35 1014.0
20260505004502 21 146 4.8 11.3 0.00 0.00 0.00 35 1013.9
20260505004003 21 154 3.2 11.3 0.00 0.00 0.00 34 1013.9
20260505003503 21 161 8.0 11.3 0.00 0.00 0.00 34 1013.9
20260505003002 21 154 8.0 11.3 0.00 0.00 0.00 33 1013.7
20260505002502 21 165 6.4 11.3 0.00 0.00 0.00 33 1013.7
20260505002002 21 195 1.6 11.3 0.00 0.00 0.00 33 1013.7
20260505001524 22 218 4.8 11.3 0.00 0.00 0.00 32 1013.6
20260505001003 22 200 3.2 12.9 0.00 0.00 0.00 32 1013.7
20260505000523 22 161 6.4 14.5 0.00 0.00 0.00 31 1013.7
20260505000003 22 177 6.4 14.5 0.00 0.00 0.00 30 1013.6
20260504235504 22 181 4.8 14.5 0.00 0.00 0.00 30 1013.6
20260504235002 22 194 4.8 16.1 0.00 0.00 0.00 30 1013.5
20260504234524 23 165 4.8 16.1 0.00 0.00 0.00 29 1013.4
20260504234002 23 173 6.4 14.5 0.00 0.00 0.00 29 1013.3
20260504233502 23 150 6.4 14.5 0.00 0.00 0.00 29 1013.3
20260504233003 23 161 3.2 12.9 0.00 0.00 0.00 28 1013.1
20260504232503 23 169 8.0 12.9 0.00 0.00 0.00 28 1013.2
20260504232003 23 157 9.7 19.3 0.00 0.00 0.00 28 1013.2
20260504231503 23 183 8.0 19.3 0.00 0.00 0.00 28 1013.1
20260504231003 23 164 4.8 19.3 0.00 0.00 0.00 28 1013.2
20260504230502 23 180 4.8 17.7 0.00 0.00 0.00 28 1013.2
20260504230002 23 166 9.7 17.7 0.00 0.00 0.00 28 1013.1
20260504225503 23 186 6.4 16.1 0.00 0.00 0.00 28 1013.1
20260504225023 23 174 8.0 12.9 0.00 0.00 0.00 28 1013.1
20260504224504 23 170 8.0 27.4 0.00 0.00 0.00 27 1013.2
20260504224004 24 167 8.0 27.4 0.00 0.00 0.00 27 1013.2
20260504223503 24 179 11.3 24.1 0.00 0.00 0.00 26 1013.2
20260504223024 24 164 11.3 20.9 0.00 0.00 0.00 26 1013.3
20260504222502 24 166 12.9 20.9 0.00 0.00 0.00 26 1013.2
20260504222002 24 161 8.0 14.5 0.00 0.00 0.00 27 1013.3
20260504221502 24 210 6.4 16.1 0.00 0.00 0.00 26 1013.2
20260504221002 24 208 6.4 19.3 0.00 0.00 0.00 27 1013.2
20260504220502 24 177 12.9 19.3 0.00 0.00 0.00 26 1013.2
20260504220003 24 174 9.7 19.3 0.00 0.00 0.00 26 1013.4
20260504215502 24 193 6.4 17.7 0.00 0.00 0.00 26 1013.4
20260504215003 24 178 6.4 20.9 0.00 0.00 0.00 26 1013.2
20260504214524 24 195 8.0 20.9 0.00 0.00 0.00 27 1013.3
20260504214002 24 234 6.4 17.7 0.00 0.00 0.00 26 1013.3
20260504213523 25 179 6.4 25.7 0.00 0.00 0.00 27 1013.2
20260504213003 25 156 14.5 25.7 0.00 0.00 0.00 27 1013.2
20260504212503 25 154 8.0 17.7 0.00 0.00 0.00 26 1013.3
20260504212003 25 176 4.8 25.7 0.00 0.00 0.00 26 1013.3
20260504211524 25 208 8.0 25.7 0.00 0.00 0.00 24 1013.3
20260504211002 25 201 9.7 24.1 0.00 0.00 0.00 23 1013.3
20260504210504 26 196 8.0 35.4 0.00 0.00 0.00 24 1013.4
20260504210003 26 155 12.9 35.4 0.00 0.00 0.00 23 1013.4
20260504205503 26 206 3.2 32.2 0.00 0.00 0.00 24 1013.4
20260504205024 26 169 14.5 27.4 0.00 0.00 0.00 25 1013.4
20260504204504 26 178 8.0 19.3 0.00 0.00 0.00 24 1013.6
20260504204004 26 161 4.8 22.5 0.00 0.00 0.00 25 1013.6
20260504203524 26 199 8.0 22.5 0.00 0.00 0.00 24 1013.7
20260504203003 26 171 8.0 19.3 0.00 0.00 0.00 25 1013.7
20260504202503 26 193 8.0 20.9 0.00 0.00 0.00 26 1013.8
20260504202004 26 179 6.4 20.9 0.00 0.00 0.00 24 1013.7
20260504201504 26 154 9.7 20.9 0.00 0.00 0.00 24 1013.9
20260504201003 26 186 6.4 16.1 0.00 0.00 0.00 27 1014.0
20260504200524 26 179 9.7 19.3 0.00 0.00 0.00 28 1014.0
20260504200002 26 175 9.7 22.5 0.00 0.00 0.00 27 1014.1
20260504195503 26 169 16.1 22.5 0.00 0.00 0.00 26 1014.2
20260504195002 25 175 4.8 22.5 0.00 0.00 0.00 24 1014.2
20260504194504 26 169 12.9 22.5 0.00 0.00 0.00 25 1014.1
20260504194003 26 154 9.7 19.3 0.00 0.00 0.00 26 1014.2
20260504193503 26 163 6.4 19.3 0.00 0.00 0.00 23 1014.4
20260504193003 26 155 12.9 19.3 0.00 0.00 0.00 25 1014.4
20260504192502 25 150 11.3 19.3 0.00 0.00 0.00 27 1014.4
20260504192002 25 175 9.7 19.3 0.00 0.00 0.00 24 1014.7
20260504191504 25 186 8.0 16.1 0.00 0.00 0.00 24 1014.7
20260504191024 26 199 8.0 20.9 0.00 0.00 0.00 25 1014.7
20260504190503 26 191 11.3 20.9 0.00 0.00 0.00 26 1014.7
20260504190003 25 210 3.2 16.1 0.00 0.00 0.00 28 1014.8
20260504185503 24 328 3.2 24.1 0.00 0.00 0.00 28 1014.9
20260504185002 25 208 8.0 24.1 0.00 0.00 0.00 28 1015.0
20260504184503 25 205 4.8 19.3 0.00 0.00 0.00 27 1015.0
20260504184004 25 162 11.3 19.3 0.00 0.00 0.00 28 1015.1
20260504183502 25 66 6.4 16.1 0.00 0.00 0.00 27 1015.0
20260504183025 25 201 8.0 16.1 0.00 0.00 0.00 27 1015.1
20260504182503 25 36 3.2 19.3 0.00 0.00 0.00 24 1015.2
20260504182003 25 181 9.7 19.3 0.00 0.00 0.00 28 1015.3
20260504181503 25 172 8.0 17.7 0.00 0.00 0.00 27 1015.2
20260504181003 25 176 11.3 19.3 0.00 0.00 0.00 28 1015.3
20260504180524 25 145 4.8 20.9 0.00 0.00 0.00 28 1015.3
20260504180003 24 161 11.3 20.9 0.00 0.00 0.00 31 1015.3
20260504175504 23 129 4.8 16.1 0.00 0.00 0.00 31 1015.3
20260504175004 23 168 4.8 22.5 0.00 0.00 0.00 30 1015.4
20260504174524 24 167 11.3 22.5 0.00 0.00 0.00 30 1015.6
20260504174002 23 150 6.4 17.7 0.00 0.00 0.00 28 1015.6
20260504173524 24 171 6.4 17.7 0.00 0.00 0.00 31 1015.7
20260504173003 23 178 4.8 11.3 0.00 0.00 0.00 31 1015.9
20260504172503 23 214 3.2 16.1 0.00 0.00 0.00 29 1015.9
20260504172024 23 179 8.0 17.7 0.00 0.00 0.00 31 1016.0
20260504171504 23 173 11.3 17.7 0.00 0.00 0.00 32 1015.9
20260504171004 23 182 8.0 16.1 0.00 0.00 0.00 30 1015.9
20260504170504 23 156 4.8 11.3 0.00 0.00 0.00 33 1016.0
20260504151004 20 168 3.2 9.7 0.00 0.00 0.00 40 1017.0
20260504150503 20 221 3.2 11.3 0.00 0.00 0.00 40 1016.9
20260504141003 18 61 3.2 6.4 0.00 0.00 0.00 50 1017.2
20260504140503 17 63 3.2 6.4 0.00 0.00 0.00 49 1017.2
20260504130504 14 20 1.6 4.8 0.00 0.00 0.00 64 1017.3
20260504110503 6 0 0.0 3.2 0.00 0.00 0.00 83 1017.0
20260504100503 7 146 3.2 3.2 0.00 0.00 0.00 81 1016.5
20260504082004 7 145 1.6 4.8 0.00 0.00 0.00 78 1016.2
20260504081503 7 146 1.6 4.8 0.00 0.00 0.00 78 1016.1
20260504081003 8 146 0.0 3.2 0.00 0.00 0.00 77 1016.0
20260504080525 8 146 0.0 3.2 0.00 0.00 0.00 77 1016.1
20260504050502 10 153 0.0 3.2 0.00 0.00 0.00 68 1016.5
20260504050003 11 0 0.0 6.4 0.00 0.00 0.00 67 1016.6
20260504045502 11 153 0.0 8.0 0.00 0.00 0.00 67 1016.5
20260504045023 11 161 3.2 8.0 0.00 0.00 0.00 67 1016.5
20260504044502 11 174 3.2 8.0 0.00 0.00 0.00 65 1016.5
20260504044002 11 159 1.6 6.4 0.00 0.00 0.00 67 1016.6
20260504043523 11 156 3.2 8.0 0.00 0.00 0.00 67 1016.6
20260504043024 11 157 4.8 8.0 0.00 0.00 0.00 65 1016.6
20260504042503 11 149 4.8 8.0 0.00 0.00 0.00 65 1016.7
20260504042023 11 148 3.2 4.8 0.00 0.00 0.00 65 1016.7
20260504041503 11 148 1.6 3.2 0.00 0.00 0.00 65 1016.8
20260504041023 11 148 0.0 3.2 0.00 0.00 0.00 64 1016.9
20260504040503 11 148 1.6 3.2 0.00 0.00 0.00 63 1017.0
20260504040002 12 148 0.0 4.8 0.00 0.00 0.00 63 1016.9
20260504035503 12 148 0.0 9.7 0.00 0.00 0.00 62 1016.9
20260504035023 11 174 3.2 9.7 0.00 0.00 0.00 62 1016.9
20260504034502 11 179 1.6 4.8 0.00 0.00 0.00 63 1016.9
20260504034003 11 184 0.0 4.8 0.00 0.00 0.00 63 1016.9
20260504033503 11 184 3.2 6.4 0.00 0.00 0.00 62 1017.0
20260504033024 11 184 1.6 6.4 0.00 0.00 0.00 62 1017.0